CFG8VL EDDG-LEBB

Flight info

Callsign CFG8VL
Flight time 1h 53m
Altitude 24000
Route DOMEG3E DOMEG N853 QATJA Y841 NVO/N0450F360 Y841 KENUM DCT GESLO/N0448F350 N852 DIK/N0449F360 UN857 TOLVU/N0450F350 DCT RAPOR DCT GIMER DCT AHVEC UN857 DISAK DCT ARKIP DCT ARNAV DCT LMG DCT UVELI DCT OSMOB DCT VAVIX/N0412F230 DCT BTZ DCT URUNA P181 SSN L176 CEGAM
Aircraft A320/M-SDE3FGHIRWY/LB1

Departure

Time 2026-04-25 10:09
Airport Münster Osnabrück Airport (EDDG)

Arrival

Time 2026-04-25 12:02
Airport Bilbao Airport (LEBB)
Time Latitude Longitude Altitude Speed Heading
2026-04-25 09:34 52.13150 7.69297 164 ft 0 kts 196°
2026-04-25 09:59 52.13152 7.69297 164 ft 2 kts 196°
2026-04-25 09:59 52.13167 7.69305 164 ft 2 kts 196°
2026-04-25 09:59 52.13183 7.69312 164 ft 2 kts 196°
2026-04-25 10:00 52.13198 7.69319 164 ft 2 kts 205°
2026-04-25 10:00 52.13213 7.69330 164 ft 2 kts 214°
2026-04-25 10:00 52.13226 7.69346 164 ft 2 kts 232°
2026-04-25 10:00 52.13235 7.69368 164 ft 2 kts 244°
2026-04-25 10:01 52.13241 7.69392 164 ft 2 kts 250°
2026-04-25 10:01 52.13243 7.69398 164 ft 0 kts 250°
2026-04-25 10:04 52.13239 7.69376 164 ft 3 kts 258°
2026-04-25 10:04 52.13250 7.69326 164 ft 5 kts 312°
2026-04-25 10:04 52.13287 7.69301 164 ft 7 kts 339°
2026-04-25 10:04 52.13328 7.69278 164 ft 6 kts 341°
2026-04-25 10:05 52.13365 7.69258 164 ft 9 kts 342°
2026-04-25 10:05 52.13442 7.69245 163 ft 9 kts 29°
2026-04-25 10:05 52.13461 7.69296 164 ft 7 kts 70°
2026-04-25 10:05 52.13482 7.69387 164 ft 10 kts 70°
2026-04-25 10:06 52.13496 7.69455 164 ft 9 kts 72°
2026-04-25 10:06 52.13516 7.69555 164 ft 12 kts 71°
2026-04-25 10:06 52.13542 7.69674 165 ft 10 kts 70°
2026-04-25 10:06 52.13563 7.69774 165 ft 11 kts 71°
2026-04-25 10:07 52.13592 7.69912 163 ft 13 kts 71°
2026-04-25 10:07 52.13647 7.70022 162 ft 12 kts 27°
2026-04-25 10:07 52.13718 7.70023 163 ft 9 kts 344°
2026-04-25 10:07 52.13758 7.69998 165 ft 6 kts 337°
2026-04-25 10:08 52.13777 7.69961 165 ft 3 kts 272°
2026-04-25 10:08 52.13773 7.69944 165 ft 0 kts 251°
2026-04-25 10:08 52.13770 7.69929 166 ft 14 kts 251°
2026-04-25 10:08 52.13641 7.69310 168 ft 98 kts 251°
2026-04-25 10:09 52.13339 7.67865 197 ft 164 kts 252°
2026-04-25 10:09 52.12979 7.66085 938 ft 169 kts 253°
2026-04-25 10:09 52.12615 7.64257 2013 ft 169 kts 254°
2026-04-25 10:09 52.12219 7.62315 2485 ft 192 kts 255°
2026-04-25 10:10 52.11750 7.60152 2825 ft 218 kts 253°
2026-04-25 10:10 52.11202 7.57665 3042 ft 246 kts 253°
2026-04-25 10:10 52.10602 7.54960 3731 ft 256 kts 253°
2026-04-25 10:10 52.09923 7.52299 4690 ft 259 kts 240°
2026-04-25 10:11 52.08556 7.50288 5423 ft 277 kts 205°
2026-04-25 10:11 52.06635 7.49805 6277 ft 285 kts 178°
2026-04-25 10:11 52.04686 7.50323 7101 ft 289 kts 168°
2026-04-25 10:11 52.02727 7.51164 7951 ft 292 kts 166°
2026-04-25 10:12 52.00738 7.52016 8766 ft 296 kts 168°
2026-04-25 10:12 51.98746 7.52747 9591 ft 299 kts 170°
2026-04-25 10:12 51.94519 7.53915 10596 ft 326 kts 174°
2026-04-25 10:13 51.92209 7.54418 10769 ft 349 kts 174°
2026-04-25 10:13 51.89718 7.54917 11076 ft 365 kts 175°
2026-04-25 10:13 51.87191 7.55410 11674 ft 371 kts 175°
2026-04-25 10:13 51.84607 7.55918 12335 ft 375 kts 175°
2026-04-25 10:14 51.81995 7.56440 13000 ft 379 kts 174°
2026-04-25 10:14 51.79386 7.56972 13639 ft 382 kts 174°
2026-04-25 10:14 51.76716 7.57521 14270 ft 386 kts 174°
2026-04-25 10:14 51.74062 7.58065 14835 ft 389 kts 175°
2026-04-25 10:15 51.71347 7.58200 15400 ft 390 kts 186°
2026-04-25 10:15 51.68655 7.57537 15974 ft 390 kts 197°
2026-04-25 10:15 51.66079 7.56274 16536 ft 392 kts 200°
2026-04-25 10:15 51.63457 7.54941 17093 ft 395 kts 200°
2026-04-25 10:16 51.60810 7.53604 17658 ft 399 kts 200°
2026-04-25 10:16 51.58147 7.52267 18204 ft 402 kts 200°
2026-04-25 10:16 51.55500 7.50939 18740 ft 405 kts 200°
2026-04-25 10:16 51.52791 7.49587 19224 ft 408 kts 200°
2026-04-25 10:17 51.50062 7.48229 19721 ft 410 kts 199°
2026-04-25 10:17 51.47318 7.46861 20208 ft 413 kts 199°
2026-04-25 10:17 51.44565 7.45481 20697 ft 416 kts 199°
2026-04-25 10:17 51.41818 7.44095 21154 ft 418 kts 201°
2026-04-25 10:18 51.39146 7.42258 21599 ft 418 kts 211°
2026-04-25 10:18 51.36705 7.39702 22032 ft 418 kts 221°
2026-04-25 10:18 51.34599 7.36523 22459 ft 418 kts 231°
2026-04-25 10:18 51.32831 7.32860 22874 ft 419 kts 236°
2026-04-25 10:19 51.31094 7.29081 23262 ft 422 kts 235°
2026-04-25 10:19 51.29341 7.25300 23656 ft 425 kts 235°
2026-04-25 10:19 51.27577 7.21521 23990 ft 427 kts 235°
2026-04-25 10:19 51.26338 7.18875 24117 ft 428 kts 235°
2026-04-25 10:20 51.24783 7.15562 24183 ft 431 kts 235°
2026-04-25 10:20 51.23249 7.12293 24214 ft 438 kts 235°
2026-04-25 10:20 51.21419 7.08386 24217 ft 440 kts 235°
2026-04-25 10:20 51.19576 7.04454 24208 ft 441 kts 235°
2026-04-25 10:21 51.17761 7.00593 24213 ft 441 kts 234°
2026-04-25 10:21 51.15919 6.96677 24215 ft 441 kts 234°
2026-04-25 10:21 51.14063 6.92734 24217 ft 441 kts 234°
2026-04-25 10:21 51.12183 6.88902 24209 ft 442 kts 230°
2026-04-25 10:22 51.09956 6.85490 24216 ft 444 kts 220°
2026-04-25 10:22 51.07434 6.82724 24213 ft 446 kts 211°
2026-04-25 10:22 51.04653 6.80518 24207 ft 447 kts 206°
2026-04-25 10:22 51.01839 6.78399 24200 ft 447 kts 206°
2026-04-25 10:23 50.99023 6.76274 24202 ft 447 kts 206°
2026-04-25 10:23 50.96213 6.74152 24202 ft 447 kts 206°
2026-04-25 10:23 50.93397 6.72027 24206 ft 447 kts 206°
2026-04-25 10:23 50.90611 6.69923 24203 ft 448 kts 206°
2026-04-25 10:24 50.87807 6.67765 24205 ft 447 kts 210°
2026-04-25 10:24 50.85190 6.65048 24206 ft 446 kts 220°
2026-04-25 10:24 50.82964 6.61735 24205 ft 444 kts 230°
2026-04-25 10:24 50.81122 6.57838 24203 ft 442 kts 240°
2026-04-25 10:25 50.79726 6.53503 24202 ft 440 kts 249°
2026-04-25 10:25 50.78604 6.49014 24200 ft 440 kts 250°
2026-04-25 10:25 50.77482 6.44556 24195 ft 440 kts 249°
2026-04-25 10:25 50.76344 6.40054 24188 ft 440 kts 249°
2026-04-25 10:26 50.75203 6.35571 24185 ft 440 kts 248°
2026-04-25 10:26 50.73751 6.31309 24183 ft 442 kts 237°
2026-04-25 10:26 50.71800 6.27581 24177 ft 443 kts 225°
2026-04-25 10:26 50.69392 6.24481 24166 ft 445 kts 214°
2026-04-25 10:27 50.66644 6.22184 24160 ft 446 kts 202°
2026-04-25 10:27 50.63690 6.20770 24156 ft 448 kts 194°
2026-04-25 10:27 50.60645 6.19657 24150 ft 448 kts 194°
2026-04-25 10:27 50.57631 6.18556 24150 ft 448 kts 194°
2026-04-25 10:28 50.54609 6.17449 24152 ft 448 kts 194°
2026-04-25 10:28 50.51563 6.16336 24152 ft 447 kts 194°
2026-04-25 10:28 50.48515 6.15223 24152 ft 447 kts 194°
2026-04-25 10:28 50.45476 6.14112 24154 ft 447 kts 194°
2026-04-25 10:29 50.42479 6.13016 24155 ft 447 kts 195°
2026-04-25 10:29 50.39426 6.11899 24155 ft 446 kts 195°
2026-04-25 10:29 50.36404 6.10796 24156 ft 446 kts 195°
2026-04-25 10:29 50.33405 6.09710 24151 ft 446 kts 195°
2026-04-25 10:30 50.30376 6.08617 24153 ft 445 kts 195°
2026-04-25 10:30 50.28376 6.07894 24155 ft 445 kts 195°
2026-04-25 10:30 50.24367 6.06440 24153 ft 444 kts 195°
2026-04-25 10:30 50.21335 6.05338 24144 ft 444 kts 195°
2026-04-25 10:31 50.18361 6.04261 24147 ft 444 kts 195°
2026-04-25 10:31 50.15345 6.03171 24149 ft 443 kts 195°
2026-04-25 10:31 50.12332 6.02124 24148 ft 444 kts 192°
2026-04-25 10:31 50.09231 6.01681 24146 ft 447 kts 182°
2026-04-25 10:32 50.06153 6.02059 24143 ft 450 kts 172°
2026-04-25 10:32 50.03104 6.03265 24143 ft 453 kts 162°
2026-04-25 10:32 50.00133 6.04977 24144 ft 453 kts 162°
2026-04-25 10:32 49.97622 6.06427 24139 ft 453 kts 162°
2026-04-25 10:33 49.94681 6.08035 24137 ft 452 kts 167°
2026-04-25 10:33 49.91593 6.08796 24141 ft 447 kts 181°
2026-04-25 10:33 49.88536 6.08434 24140 ft 441 kts 194°
2026-04-25 10:33 49.85618 6.06997 24137 ft 436 kts 207°
2026-04-25 10:34 49.83022 6.04599 24137 ft 432 kts 220°
2026-04-25 10:34 49.80861 6.01394 24139 ft 428 kts 233°
2026-04-25 10:34 49.79106 5.97677 24140 ft 427 kts 237°
2026-04-25 10:34 49.77403 5.93967 24131 ft 428 kts 236°
2026-04-25 10:35 49.75651 5.90164 24225 ft 436 kts 237°
2026-04-25 10:35 49.74077 5.86104 24343 ft 441 kts 245°
2026-04-25 10:35 49.72945 5.81728 24459 ft 445 kts 251°
2026-04-25 10:35 49.71900 5.77181 24571 ft 450 kts 251°
2026-04-25 10:36 49.70841 5.72584 24689 ft 454 kts 251°
2026-04-25 10:36 49.69781 5.68014 24806 ft 457 kts 251°
2026-04-25 10:36 49.68697 5.63370 24966 ft 459 kts 251°
2026-04-25 10:36 49.67607 5.58723 25186 ft 459 kts 251°
2026-04-25 10:37 49.66525 5.54126 25414 ft 459 kts 251°
2026-04-25 10:37 49.65432 5.49487 25642 ft 459 kts 251°
2026-04-25 10:37 49.64351 5.44899 25900 ft 458 kts 251°
2026-04-25 10:37 49.63259 5.40266 26142 ft 458 kts 251°
2026-04-25 10:38 49.62181 5.35682 26370 ft 457 kts 251°
2026-04-25 10:38 49.61137 5.31033 26636 ft 457 kts 252°
2026-04-25 10:38 49.60137 5.26363 26910 ft 456 kts 252°
2026-04-25 10:38 49.59179 5.21761 27187 ft 456 kts 253°
2026-04-25 10:39 49.58261 5.17067 27442 ft 455 kts 255°
2026-04-25 10:39 49.57424 5.12363 27719 ft 455 kts 256°
2026-04-25 10:39 49.56628 5.07639 28013 ft 454 kts 256°
2026-04-25 10:39 49.55840 5.02915 28298 ft 453 kts 256°
2026-04-25 10:40 49.55042 4.98200 28591 ft 453 kts 255°
2026-04-25 10:40 49.54238 4.93569 28883 ft 452 kts 255°
2026-04-25 10:40 49.53414 4.88946 29169 ft 452 kts 255°
2026-04-25 10:40 49.52853 4.85840 29363 ft 451 kts 255°
2026-04-25 10:41 49.51728 4.79658 29765 ft 450 kts 254°
2026-04-25 10:41 49.50879 4.75008 30060 ft 450 kts 254°
2026-04-25 10:41 49.50034 4.70363 30355 ft 449 kts 254°
2026-04-25 10:41 49.49199 4.65763 30618 ft 448 kts 254°
2026-04-25 10:42 49.48360 4.61123 30886 ft 447 kts 254°
2026-04-25 10:42 49.47530 4.56555 31142 ft 446 kts 254°
2026-04-25 10:42 49.46685 4.51934 31404 ft 446 kts 254°
2026-04-25 10:42 49.45853 4.47400 31662 ft 445 kts 253°
2026-04-25 10:43 49.45018 4.42846 31921 ft 444 kts 253°
2026-04-25 10:43 49.44172 4.38248 32180 ft 443 kts 253°
2026-04-25 10:43 49.43328 4.33670 32437 ft 443 kts 253°
2026-04-25 10:43 49.42494 4.29164 32686 ft 442 kts 253°
2026-04-25 10:44 49.41648 4.24601 32944 ft 441 kts 253°
2026-04-25 10:44 49.40818 4.20127 33184 ft 440 kts 253°
2026-04-25 10:44 49.39973 4.15585 33435 ft 440 kts 253°
2026-04-25 10:44 49.39126 4.11050 33680 ft 439 kts 252°
2026-04-25 10:45 49.38284 4.06586 33932 ft 438 kts 252°
2026-04-25 10:45 49.37429 4.02068 34141 ft 438 kts 252°
2026-04-25 10:45 49.36396 3.97714 34191 ft 436 kts 244°
2026-04-25 10:46 49.33254 3.89781 34184 ft 434 kts 235°
2026-04-25 10:46 49.29912 3.82093 34190 ft 435 kts 235°
2026-04-25 10:47 49.26570 3.74399 34186 ft 435 kts 235°
2026-04-25 10:47 49.23216 3.66715 34181 ft 435 kts 235°
2026-04-25 10:48 49.19842 3.59018 34183 ft 435 kts 235°
2026-04-25 10:48 49.16479 3.51362 34175 ft 435 kts 235°
2026-04-25 10:49 49.13086 3.43668 34174 ft 435 kts 234°
2026-04-25 10:49 49.09714 3.36044 34169 ft 435 kts 234°
2026-04-25 10:50 49.06883 3.29656 34163 ft 435 kts 234°
2026-04-25 10:50 49.03488 3.22012 34164 ft 435 kts 234°
2026-04-25 10:51 49.00090 3.14377 34163 ft 436 kts 234°
2026-04-25 10:51 48.96680 3.06747 34165 ft 437 kts 234°
2026-04-25 10:52 48.93248 2.99080 34167 ft 437 kts 234°
2026-04-25 10:52 48.90377 2.92693 34166 ft 438 kts 234°
2026-04-25 10:53 48.86935 2.85060 34167 ft 439 kts 234°
2026-04-25 10:53 48.83496 2.77450 34171 ft 439 kts 234°
2026-04-25 10:54 48.80029 2.69783 34170 ft 440 kts 234°
2026-04-25 10:54 48.76579 2.62184 34168 ft 440 kts 234°
2026-04-25 10:55 48.73087 2.54523 34178 ft 441 kts 234°
2026-04-25 10:55 48.69593 2.46875 34174 ft 442 kts 234°
2026-04-25 10:56 48.66092 2.39240 34174 ft 442 kts 234°
2026-04-25 10:56 48.62587 2.31629 34177 ft 443 kts 234°
2026-04-25 10:57 48.58836 2.24236 34170 ft 442 kts 223°
2026-04-25 10:57 48.53866 2.18966 34167 ft 439 kts 204°
2026-04-25 10:58 48.48020 2.16331 34152 ft 439 kts 191°
2026-04-25 10:58 48.42050 2.14418 34143 ft 440 kts 191°
2026-04-25 10:59 48.36066 2.12491 34137 ft 441 kts 191°
2026-04-25 10:59 48.30057 2.10673 34140 ft 442 kts 186°
2026-04-25 11:00 48.23920 2.10910 34138 ft 441 kts 171°
2026-04-25 11:00 48.17864 2.12219 34138 ft 442 kts 171°
2026-04-25 11:01 48.11715 2.12835 34140 ft 443 kts 184°
2026-04-25 11:01 48.05619 2.11662 34141 ft 444 kts 186°
2026-04-25 11:02 47.99496 2.10501 34144 ft 445 kts 186°
2026-04-25 11:02 47.93324 2.09345 34146 ft 446 kts 186°
2026-04-25 11:03 47.87182 2.08172 34152 ft 446 kts 186°
2026-04-25 11:03 47.81039 2.06996 34149 ft 447 kts 186°
2026-04-25 11:04 47.74882 2.05823 34137 ft 447 kts 186°
2026-04-25 11:04 47.68675 2.04645 34132 ft 448 kts 186°
2026-04-25 11:05 47.62530 2.03068 34125 ft 451 kts 196°
2026-04-25 11:05 47.56664 1.99751 34113 ft 454 kts 200°
2026-04-25 11:06 47.50755 1.96315 34113 ft 455 kts 200°
2026-04-25 11:06 47.44864 1.92924 34113 ft 457 kts 200°
2026-04-25 11:07 47.38903 1.89490 34115 ft 459 kts 200°
2026-04-25 11:07 47.32960 1.86075 34121 ft 460 kts 200°
2026-04-25 11:08 47.27013 1.82664 34121 ft 461 kts 200°
2026-04-25 11:08 47.21040 1.79245 34119 ft 462 kts 201°
2026-04-25 11:09 47.15008 1.75819 34116 ft 463 kts 201°
2026-04-25 11:09 47.09008 1.72448 34117 ft 464 kts 201°
2026-04-25 11:10 47.02988 1.69081 34117 ft 464 kts 201°
2026-04-25 11:10 46.96926 1.65684 34122 ft 465 kts 201°
2026-04-25 11:11 46.90910 1.62315 34120 ft 465 kts 202°
2026-04-25 11:11 46.84869 1.58939 34121 ft 466 kts 202°
2026-04-25 11:12 46.78793 1.55560 34121 ft 466 kts 202°
2026-04-25 11:12 46.72740 1.52207 34121 ft 466 kts 202°
2026-04-25 11:13 46.66668 1.48840 34118 ft 466 kts 202°
2026-04-25 11:13 46.60625 1.45502 34121 ft 465 kts 203°
2026-04-25 11:14 46.54571 1.42160 34126 ft 465 kts 203°
2026-04-25 11:14 46.48542 1.38846 34131 ft 464 kts 203°
2026-04-25 11:15 46.42491 1.35534 34135 ft 463 kts 203°
2026-04-25 11:15 46.36482 1.32246 34145 ft 462 kts 203°
2026-04-25 11:16 46.27461 1.27321 34150 ft 461 kts 203°
2026-04-25 11:16 46.21465 1.24056 34149 ft 460 kts 203°
2026-04-25 11:17 46.15501 1.20821 34151 ft 459 kts 203°
2026-04-25 11:17 46.09505 1.17571 34156 ft 459 kts 203°
2026-04-25 11:18 46.03546 1.14348 34159 ft 458 kts 202°
2026-04-25 11:18 45.97604 1.11152 34167 ft 457 kts 202°
2026-04-25 11:19 45.91652 1.07957 34160 ft 457 kts 202°
2026-04-25 11:19 45.85678 1.04748 34159 ft 456 kts 202°
2026-04-25 11:20 45.80103 1.00659 34158 ft 450 kts 218°
2026-04-25 11:20 45.75284 0.94957 34154 ft 449 kts 222°
2026-04-25 11:21 45.70477 0.89213 34154 ft 448 kts 222°
2026-04-25 11:21 45.65686 0.83524 34156 ft 448 kts 222°
2026-04-25 11:22 45.61681 0.78770 34155 ft 448 kts 222°
2026-04-25 11:22 45.56133 0.72164 34158 ft 447 kts 222°
2026-04-25 11:23 45.51341 0.66468 34161 ft 447 kts 221°
2026-04-25 11:23 45.46575 0.60821 34166 ft 446 kts 221°
2026-04-25 11:24 45.41809 0.55203 34168 ft 445 kts 221°
2026-04-25 11:24 45.37027 0.49577 34172 ft 445 kts 221°
2026-04-25 11:25 45.32268 0.43985 34168 ft 444 kts 221°
2026-04-25 11:25 45.27479 0.38368 34164 ft 444 kts 221°
2026-04-25 11:26 45.22731 0.32820 34163 ft 443 kts 221°
2026-04-25 11:26 45.17979 0.27278 34163 ft 443 kts 221°
2026-04-25 11:27 45.13212 0.21725 34160 ft 442 kts 220°
2026-04-25 11:27 45.09251 0.17118 34157 ft 442 kts 220°
2026-04-25 11:28 45.03733 0.10722 34159 ft 441 kts 220°
2026-04-25 11:28 44.98965 0.05217 34194 ft 440 kts 221°
2026-04-25 11:29 44.94269 -0.00208 34201 ft 435 kts 221°
2026-04-25 11:29 44.89589 -0.05600 34202 ft 432 kts 221°
2026-04-25 11:30 44.84962 -0.10916 34192 ft 430 kts 221°
2026-04-25 11:30 44.80313 -0.16240 34190 ft 429 kts 220°
2026-04-25 11:31 44.75708 -0.21523 34186 ft 428 kts 220°
2026-04-25 11:31 44.71074 -0.26822 34185 ft 428 kts 220°
2026-04-25 11:32 44.66465 -0.32059 34178 ft 427 kts 220°
2026-04-25 11:32 44.61742 -0.37122 34180 ft 428 kts 217°
2026-04-25 11:33 44.56789 -0.41832 34172 ft 428 kts 215°
2026-04-25 11:33 44.51838 -0.46428 34166 ft 428 kts 215°
2026-04-25 11:34 44.46923 -0.51083 34172 ft 428 kts 216°
2026-04-25 11:34 44.42013 -0.55805 34167 ft 428 kts 216°
2026-04-25 11:35 44.37115 -0.60506 34168 ft 429 kts 216°
2026-04-25 11:35 44.32174 -0.65223 34171 ft 429 kts 216°
2026-04-25 11:36 44.27229 -0.69922 34172 ft 429 kts 216°
2026-04-25 11:36 44.22373 -0.74784 34174 ft 429 kts 217°
2026-04-25 11:37 44.17604 -0.79745 34172 ft 429 kts 218°
2026-04-25 11:37 44.13613 -0.83878 34180 ft 429 kts 217°
2026-04-25 11:38 44.08802 -0.88786 34178 ft 429 kts 217°
2026-04-25 11:38 44.03162 -0.94478 34174 ft 430 kts 217°
2026-04-25 11:39 43.99121 -0.98554 34178 ft 430 kts 217°
2026-04-25 11:39 43.94300 -1.03435 34182 ft 430 kts 217°
2026-04-25 11:40 43.89476 -1.08301 34183 ft 430 kts 217°
2026-04-25 11:40 43.84607 -1.13190 34181 ft 430 kts 217°
2026-04-25 11:41 43.79781 -1.18033 34110 ft 429 kts 217°
2026-04-25 11:41 43.77375 -1.20449 33330 ft 429 kts 216°
2026-04-25 11:41 43.74946 -1.22887 32389 ft 432 kts 216°
2026-04-25 11:42 43.72497 -1.25341 31451 ft 435 kts 216°
2026-04-25 11:42 43.70050 -1.27790 30518 ft 438 kts 216°
2026-04-25 11:42 43.67556 -1.30283 29443 ft 442 kts 216°
2026-04-25 11:42 43.65076 -1.32757 28417 ft 444 kts 216°
2026-04-25 11:43 43.62574 -1.35246 27671 ft 440 kts 216°
2026-04-25 11:43 43.60097 -1.37707 26945 ft 436 kts 216°
2026-04-25 11:43 43.57641 -1.40143 26263 ft 432 kts 216°
2026-04-25 11:43 43.55242 -1.42520 25609 ft 429 kts 216°
2026-04-25 11:44 43.52824 -1.44916 24958 ft 425 kts 216°
2026-04-25 11:44 43.50427 -1.47292 24330 ft 422 kts 216°
2026-04-25 11:44 43.48090 -1.49730 23715 ft 419 kts 221°
2026-04-25 11:44 43.46067 -1.52538 23027 ft 415 kts 230°
2026-04-25 11:45 43.44390 -1.55708 22393 ft 412 kts 237°
2026-04-25 11:45 43.42813 -1.58994 21766 ft 409 kts 237°
2026-04-25 11:45 43.41246 -1.62245 21180 ft 406 kts 236°
2026-04-25 11:45 43.39705 -1.65422 20623 ft 403 kts 236°
2026-04-25 11:46 43.38150 -1.68611 20076 ft 400 kts 236°
2026-04-25 11:46 43.36603 -1.71776 19553 ft 397 kts 236°
2026-04-25 11:46 43.35065 -1.74926 19028 ft 395 kts 236°
2026-04-25 11:46 43.33539 -1.78059 18525 ft 393 kts 236°
2026-04-25 11:47 43.32019 -1.81176 17931 ft 391 kts 235°
2026-04-25 11:47 43.30311 -1.84009 17422 ft 388 kts 225°
2026-04-25 11:47 43.28335 -1.86519 16912 ft 384 kts 223°
2026-04-25 11:47 43.26361 -1.88971 16409 ft 381 kts 223°
2026-04-25 11:48 43.24405 -1.91403 15917 ft 377 kts 223°
2026-04-25 11:48 43.22467 -1.93815 15432 ft 374 kts 223°
2026-04-25 11:48 43.20544 -1.96207 14938 ft 371 kts 223°
2026-04-25 11:48 43.18654 -1.98554 14455 ft 368 kts 223°
2026-04-25 11:49 43.16762 -2.00900 13970 ft 365 kts 223°
2026-04-25 11:49 43.14884 -2.03228 13422 ft 362 kts 223°
2026-04-25 11:49 43.13018 -2.05540 12878 ft 359 kts 223°
2026-04-25 11:49 43.11190 -2.07802 12345 ft 357 kts 223°
2026-04-25 11:50 43.09354 -2.10073 11746 ft 350 kts 223°
2026-04-25 11:50 43.07536 -2.12319 11074 ft 351 kts 223°
2026-04-25 11:50 43.05728 -2.14550 10552 ft 348 kts 223°
2026-04-25 11:50 43.03960 -2.16731 10237 ft 344 kts 223°
2026-04-25 11:51 43.02245 -2.18908 10167 ft 320 kts 229°
2026-04-25 11:51 43.01053 -2.21291 10183 ft 291 kts 246°
2026-04-25 11:51 43.00463 -2.23890 10193 ft 284 kts 262°
2026-04-25 11:51 43.00443 -2.26547 10191 ft 283 kts 278°
2026-04-25 11:52 43.00985 -2.29113 10190 ft 284 kts 294°
2026-04-25 11:52 43.01994 -2.31468 10037 ft 286 kts 301°
2026-04-25 11:52 43.03060 -2.33763 9502 ft 283 kts 301°
2026-04-25 11:52 43.04098 -2.35994 8914 ft 279 kts 301°
2026-04-25 11:53 43.05120 -2.38194 8594 ft 264 kts 301°
2026-04-25 11:53 43.06182 -2.40132 8356 ft 249 kts 314°
2026-04-25 11:53 43.07522 -2.41608 7879 ft 245 kts 328°
2026-04-25 11:53 43.09049 -2.42560 7356 ft 243 kts 341°
2026-04-25 11:54 43.10648 -2.43302 6844 ft 241 kts 339°
2026-04-25 11:54 43.12134 -2.44356 6314 ft 238 kts 323°
2026-04-25 11:54 43.14132 -2.47824 5984 ft 237 kts 298°
2026-04-25 11:55 43.14882 -2.49834 5983 ft 233 kts 297°
2026-04-25 11:55 43.15612 -2.51816 5985 ft 237 kts 297°
2026-04-25 11:55 43.16358 -2.53828 5994 ft 236 kts 297°
2026-04-25 11:55 43.17074 -2.55753 5987 ft 213 kts 297°
2026-04-25 11:56 43.17711 -2.57469 5976 ft 197 kts 297°
2026-04-25 11:56 43.18330 -2.59135 5720 ft 193 kts 297°
2026-04-25 11:56 43.18938 -2.60775 5441 ft 191 kts 297°
2026-04-25 11:56 43.19532 -2.62376 5174 ft 190 kts 297°
2026-04-25 11:57 43.20129 -2.63987 4892 ft 188 kts 297°
2026-04-25 11:57 43.20720 -2.65583 4611 ft 188 kts 297°
2026-04-25 11:57 43.21311 -2.67178 4312 ft 186 kts 297°
2026-04-25 11:57 43.21887 -2.68737 4037 ft 186 kts 297°
2026-04-25 11:58 43.22473 -2.70321 3769 ft 184 kts 297°
2026-04-25 11:58 43.23053 -2.71890 3478 ft 183 kts 297°
2026-04-25 11:58 43.23621 -2.73430 3218 ft 183 kts 297°
2026-04-25 11:58 43.24197 -2.74988 2936 ft 182 kts 297°
2026-04-25 11:59 43.24772 -2.76549 2656 ft 182 kts 297°
2026-04-25 11:59 43.25333 -2.78070 2383 ft 176 kts 297°
2026-04-25 11:59 43.25866 -2.79517 2126 ft 163 kts 297°
2026-04-25 12:00 43.26851 -2.82193 1635 ft 153 kts 297°
2026-04-25 12:00 43.27326 -2.83481 1405 ft 152 kts 297°
2026-04-25 12:00 43.28283 -2.86074 930 ft 152 kts 297°
2026-04-25 12:01 43.28759 -2.87378 676 ft 152 kts 297°
2026-04-25 12:01 43.29227 -2.88642 440 ft 147 kts 297°
2026-04-25 12:01 43.29685 -2.89903 209 ft 147 kts 296°
2026-04-25 12:01 43.30123 -2.91092 132 ft 124 kts 296°
2026-04-25 12:02 43.30471 -2.91929 129 ft 20 kts 321°
2026-04-25 12:02 43.30573 -2.92026 126 ft 12 kts 332°
2026-04-25 12:02 43.30640 -2.91998 125 ft 7 kts 92°
2026-04-25 12:03 43.30624 -2.91956 125 ft 4 kts 110°
2026-04-25 12:03 43.30619 -2.91942 127 ft 0 kts 114°
2026-04-25 12:04 43.30619 -2.91941 129 ft 1 kts 114°
2026-04-25 12:04 43.30606 -2.91903 128 ft 8 kts 116°
2026-04-25 12:04 43.30575 -2.91818 128 ft 10 kts 116°
2026-04-25 12:04 43.30543 -2.91733 128 ft 13 kts 117°
2026-04-25 12:05 43.30503 -2.91623 128 ft 12 kts 117°
2026-04-25 12:05 43.30468 -2.91528 130 ft 11 kts 117°
2026-04-25 12:05 43.30430 -2.91425 128 ft 15 kts 117°
2026-04-25 12:05 43.30371 -2.91264 128 ft 20 kts 117°
2026-04-25 12:06 43.30316 -2.91111 129 ft 14 kts 113°
2026-04-25 12:06 43.30321 -2.91027 128 ft 8 kts 42°
2026-04-25 12:06 43.30368 -2.90995 130 ft 7 kts 25°
2026-04-25 12:06 43.30404 -2.90927 130 ft 13 kts 85°
2026-04-25 12:07 43.30405 -2.90805 131 ft 3 kts 100°
2026-04-25 12:07 43.30406 -2.90781 131 ft 2 kts 60°
2026-04-25 12:07 43.30428 -2.90767 131 ft 5 kts 26°
2026-04-25 12:07 43.30456 -2.90748 159 ft 4 kts 26°
2026-04-25 12:08 43.30461 -2.90744 159 ft 0 kts 26°